Home > Weather > Moncton > Past weeks

Flag for Canada Weather for the Past 2 Weeks in Moncton, New Brunswick, Canada

Now
41 °F

Drizzle. Fog.


Feels Like: 32 °F
Forecast: 37 / 45 °F
Wind: 18 mph from North

Location: Moncton

Current Time: May 6, 2016 at 12:12:40 PM

Latest Report: May 6, 2016 at 11:00 AM


Visibility: 5 mi

Pressure: 29.76 "Hg

Humidity: 93%

Dew Point: 39 °F

Location of MonctonLocation

Historic Weather in Moncton — Graph

°F

Moncton Temperature Yesterday

Maximum temperature yesterday: 41 °F (at 4:00 PM)
Minimum temperature yesterday: 37 °F (at 2:56 AM)
Average temperature yesterday: 39 °F

High & Low Weather Summary for the Past Weeks

 TemperatureHumidityPressure
High70 °F (Apr 21, 3:00 PM)100% (Apr 23, 10:00 PM)30.28 "Hg (Apr 23, 10:00 PM)
Low23 °F (Apr 26, 4:00 AM)17% (Apr 24, 6:00 PM)29.69 "Hg (Apr 21, 5:00 PM)
Average42 °F60%29.93 "Hg
* Reported Apr 21 11:00 AM — May 6 11:00 AM, Moncton, Weather by CustomWeather, © 2016

Note: Actual official high and low records may vary slightly from our data, if they occured in-between our weather recording intervals... More about our weather records

Advertising

Moncton Weather History for the Previous 24 Hours

Scroll right to see more
 ConditionsComfort  
Time TempWeatherWind HumidityBarometerVisibility
11:00 AM
Fri, May 6
41 °FDrizzle. Fog.18 mph93%29.76 "Hg5 mi
10:00 AM41 °FDrizzle. Fog.13 mph93%29.75 "Hg2 mi
9:00 AM39 °FDrizzle. Fog.21 mph93%29.72 "Hg2 mi
8:00 AM39 °FLight rain. Fog.18 mph93%29.72 "Hg3 mi
7:00 AM37 °FLight rain. Fog.21 mph93%29.71 "Hg4 mi
6:00 AM37 °FLight rain. Fog.20 mph93%29.71 "Hg6 mi
5:00 AM37 °FLight rain. Fog.15 mph93%29.72 "Hg5 mi
4:00 AM37 °FLight rain. Low clouds.18 mph93%29.72 "Hg8 mi
3:00 AM37 °FLight rain. Fog.20 mph93%29.72 "Hg6 mi
2:00 AM37 °FLight rain. Low clouds.15 mph93%29.74 "Hg12 mi
1:00 AM37 °FLight rain. Low clouds.17 mph93%29.79 "Hg8 mi
12:00 AM37 °FLight rain. Fog.15 mph100%29.82 "Hg4 mi
11:48 PM
Thu, May 5
37 °FLight rain. Fog.16 mph100%29.82 "Hg2 mi
11:00 PM37 °FLight rain. Fog.14 mph100%29.84 "Hg1 mi
10:00 PM37 °FLight rain. Fog.14 mph100%29.86 "Hg1 mi
9:48 PM37 °FRain. Fog.14 mph100%29.86 "Hg1 mi
9:00 PM39 °FLight rain. Fog.12 mph93%29.86 "Hg2 mi
8:00 PM39 °FFog.12 mph93%29.87 "Hg2 mi
7:00 PM39 °FDrizzle. Fog.10 mph93%29.86 "Hg1 mi
6:00 PM39 °FDrizzle. Fog.12 mph93%29.89 "Hg1 mi
5:52 PM39 °FDrizzle. Fog.12 mph93%29.89 "Hg1 mi
5:00 PM39 °FDrizzle. Fog.13 mph100%29.89 "Hg1 mi
4:48 PM39 °FDrizzle. Fog.14 mph100%29.90 "Hg1 mi
4:00 PM41 °FDrizzle. Fog.12 mph93%29.90 "Hg1 mi
3:00 PM39 °FDrizzle. Fog.18 mph100%29.90 "Hg1 mi
2:00 PM39 °FDrizzle. Fog.16 mph100%29.89 "Hg15 mi
1:00 PM39 °FDrizzle. Fog.16 mph100%29.91 "Hg2 mi
12:00 PM39 °FDrizzle. Fog.16 mph100%29.90 "Hg2 mi
Weather by CustomWeather, © 2016

See weather overviewHow to use our weather pages